This demonstration page uses our WeatherBlox Daily Observations layout. Learn more.

Left ArrowRight Arrow

40.92501, -98.34201

Hourly Observations for October 3, 2022

Temp ( °F °C ) Dew Point ( °F °C ) Humidity (%) Winds ( mph kmh ) Pressure ( in mb ) Visibility ( mi km ) Precip ( " mm )
12:53 am 00:53 Clear 62 16.7 39 3.9 42 42 SSE 13 20 30.19 1022 10 16 0.00 0.00
1:53 am 01:53 Clear 60 15.6 39 3.9 46 46 S 14 22 30.18 1022 10 16 0.00 0.00
2:53 am 02:53 Clear 58 14.4 39 3.9 49 49 S 12 19 30.18 1022 10 16 0.00 0.00
3:53 am 03:53 Clear 56 13.3 39 3.9 53 53 S 9 15 30.17 1022 10 16 0.00 0.00
4:53 am 04:53 Clear 54 12.2 39 3.9 57 57 S 8 13 30.17 1022 10 16 0.00 0.00
5:53 am 05:53 Clear 54 12.2 39 3.9 57 57 S 12 19 30.18 1022 10 16 0.00 0.00
6:53 am 06:53 Clear 53 11.7 40 4.4 61 61 SSE 12 19 30.18 1022 10 16 0.00 0.00
7:53 am 07:53 Sunny 54 12.2 40 4.4 59 59 S 9 15 30.19 1022 10 16 0.00 0.00
8:53 am 08:53 Sunny 57 13.9 40 4.4 53 53 SSE 12 19 30.19 1022 10 16 0.00 0.00
9:53 am 09:53 Sunny 65 18.3 41 5 41 41 S 12 19 30.19 1023 10 16 0.00 0.00
10:53 am 10:53 Sunny 73 22.8 39 3.9 29 29 S 15 24 30.18 1022 10 16 0.00 0.00
11:53 am 11:53 Sunny 79 26.1 39 3.9 24 24 S 15 24 30.16 1021 10 16 0.00 0.00
12:53 pm 12:53 Sunny 83 28.3 39 3.9 21 21 S 18 30 30.14 1021 10 16 0.00 0.00
1:53 pm 13:53 Sunny 84 28.9 38 3.3 19 19 SSE 18 30 30.12 1020 10 16 0.00 0.00
2:53 pm 14:53 Sunny 83 28.3 36 2.2 19 19 S 22 35 30.10 1019 10 16 0.00 0.00
3:53 pm 15:53 Sunny 83 28.3 37 2.8 19 19 S 18 30 30.08 1019 10 16 0.00 0.00
4:53 pm 16:53 Sunny 81 27.2 37 2.8 21 21 SSE 17 28 30.06 1018 10 16 0.00 0.00
5:53 pm 17:53 Sunny 80 26.7 37 2.8 21 21 SSE 13 20 30.06 1018 10 16 0.00 0.00
6:53 pm 18:53 Sunny 77 25 38 3.3 24 24 SSE 14 22 30.07 1018 10 16 0.00 0.00
7:53 pm 19:53 Clear 74 23.3 38 3.3 27 27 SSE 12 19 30.07 1018 10 16 0.00 0.00
8:53 pm 20:53 Clear 72 22.2 38 3.3 29 29 SE 13 20 30.08 1019 10 16 0.00 0.00
9:53 pm 21:53 Partly Cloudy 69 20.6 38 3.3 32 32 SSE 12 19 30.09 1019 10 16 0.00 0.00
10:53 pm 22:53 Cloudy 68 20 39 3.9 35 35 SSE 10 17 30.09 1019 10 16 0.00 0.00
11:53 pm 23:53 Cloudy 69 20.6 40 4.4 34 34 SSE 10 17 30.09 1019 10 16 0.00 0.00

Powered by AerisWeather